Hourly Data Report for January 11, 2022

RANKIN INLET A
NUNAVUT
Current Station Operator: NAVCAN

62°48'38.000" N
92°06'53.000" W
32.30 m
2303405
71083
YRT

Download Data

Hourly Data (January 2022)
Hourly Data Report for January 11, 2022
TIME
LST
Temp Definition
°C
Dew Point Definition
°C
Rel Hum Definition
%
Precip. Amount Definition
mm

Wind Dir Definition
10's deg

Wind Spd Definition
km/h
Visibility Definition
km
Stn Press Definition
kPa
Hmdx Definition


Wind Chill Definition


Weather Definition


00:00 -34.5 -38.9 65   28 15 24.1 100.01   -47 Ice Crystals
01:00 -34.1 -38.4 66   26 14 24.1 99.99   -46 Ice Crystals
02:00 -33.8 -38.2 65   28 21 24.1 99.90   -48 Ice Crystals
03:00 -33.6 -38.0 65   31 14 24.1 99.75   -45 Ice Crystals
04:00 -33.0 -37.4 65   28 11 24.1 99.65   -43 Ice Crystals
05:00 -32.3 -36.8 66   29 17 24.1 99.64   -45 Ice Crystals
06:00 -31.7 -36.0 66   29 17 9.7 99.53   -44 Snow,Ice Crystals
07:00 -31.1 -35.5 66   32 30 12.9 99.48   -47 Snow,Ice Crystals
08:00 -30.8 -35.2 66   33 32 8.1 99.43   -47 Snow,Blowing Snow
09:00 -31.1 -35.5 66   30 26 24.1 99.43   -46 Blowing Snow
10:00 -32.1 -36.4 66   31 28 24.1 99.42   -48 Blowing Snow
11:00 -32.6 -37.0 66   32 32 16.1 99.44   -49 Blowing Snow
12:00 -33.3 -37.7 66   33 34 4.8 99.49   -51 Blowing Snow
13:00 -33.8 -38.1 66   32 39 3.2 99.46   -52 Ice Crystals,Blowing Snow
14:00 -34.1 -38.5 66   33 41 1.6 99.49   -53 Ice Crystals,Blowing Snow
15:00 -34.4 -38.8 65   33 37 2.4 99.57   -53 Ice Crystals,Blowing Snow
16:00 -34.6 -39.0 65   32 29 3.2 99.65   -51 Ice Crystals,Blowing Snow
17:00 -35.0 -39.4 65   32 38 4.8 99.65   -54 Ice Crystals,Blowing Snow
18:00 -35.0 -39.5 65   33 32 4.8 99.70   -53 Ice Crystals,Blowing Snow
19:00 -34.8 -39.2 65   32 35 3.2 99.71   -53 Ice Crystals,Blowing Snow
20:00 -33.5 -37.9 66   32 36 3.2 99.74   -51 Ice Crystals,Blowing Snow
21:00 -33.0 -37.4 66   31 36 3.2 99.68   -51 Ice Crystals,Blowing Snow
22:00 -32.2 -36.5 66   31 40 2.4 99.66   -50 Snow,Blowing Snow
23:00 -32.1 -36.4 66   31 35 3.2 99.68   -49 Snow,Blowing Snow

Notes on Data Quality.

Legend

  • E = Estimated
  • M = Missing
  • NA = Not Available*
  • [empty] = Indicates an unobserved value
Date modified: